Location: Caltech
(34.1382°N, 118.1253°W)
Time: 21:46:35
(UTC-07:00)

TMSAT-1 - Visible Passes

Search period start: 25 April 2015 00:00
Search period end: 05 May 2015 00:00
Orbit: 808 x 813 km, 98.5° (Epoch: 24 April)

Date Brightness Start Highest point End Pass type
(mag) Time Alt. Az. Time Alt. Az. Time Alt. Az.
25 Apr 11.7 02:16:39 10° ENE 02:17:57 12° E 02:17:57 12° E visible
25 Apr 9.0 03:53:32 10° N 03:58:48 68° WNW 03:59:06 66° W visible
26 Apr 9.1 03:30:03 10° NNE 03:35:21 72° E 03:35:26 72° ESE visible
26 Apr 11.0 05:12:29 10° NW 05:14:45 12° WNW 05:16:36 10° W visible
27 Apr 10.0 03:06:49 10° NNE 03:11:45 41° E 03:11:45 41° E visible
27 Apr 10.5 04:47:32 10° NNW 04:51:29 21° WNW 04:52:55 19° W visible
28 Apr 10.9 02:43:58 10° NE 02:48:04 24° E 02:48:04 24° E visible
28 Apr 9.8 04:23:23 10° N 04:28:10 34° WNW 04:29:14 31° W visible
29 Apr 11.5 02:21:53 10° ENE 02:24:24 14° E 02:24:24 14° E visible
29 Apr 9.2 03:59:34 10° N 04:04:47 58° WNW 04:05:33 53° WSW visible
30 Apr 9.0 03:36:02 10° NNE 03:41:20 83° E 03:41:52 72° S visible
30 Apr 11.1 05:19:26 10° NW 05:20:40 11° WNW 05:21:33 10° WNW visible
01 May 9.7 03:12:43 10° NNE 03:17:50 48° E 03:18:11 47° ESE visible
01 May 10.7 04:53:49 10° NNW 04:57:26 18° WNW 04:59:21 15° W visible
02 May 10.6 02:49:45 10° NE 02:54:12 28° E 02:54:29 28° E visible
02 May 10.1 04:29:31 10° N 04:34:07 30° WNW 04:35:39 25° W visible
03 May 11.3 02:27:22 10° NE 02:30:28 16° E 02:30:48 16° E visible
03 May 9.4 04:05:37 10° N 04:10:45 50° WNW 04:11:58 42° WSW visible
04 May 9.0 03:42:00 10° NNE 03:47:19 86° WNW 03:48:16 62° SSW visible
